Date String (YYYY-MM-DD hh:mm:ss) UTC,Instrument flags,Ambient pressure (hPa),Sample flow (lpm),Bypass flow (lpm),Sample temperature (°C),Ambient temperature (°C),ASC tube jacket temperature (°C),LED temperature (°C),Box temperature (°C),Sample RH (%),Span deviation,Mass concentration (μg/m³),Mass concentration (μg/m³),Mass concentration (μg/m³)
DateTimeUTC,F1_M11,P_M11,Q1_M11,Q2_M11,T1_M11,T2_M11,T3_M11,T4_M11,T5_M11,U1_M11,ZSPAN_M11,X0_M11,X2_M11,X1_M11
2022-06-21 05:00:00,,0828.9,5.01,0.00,29.8,28.9,00.0,38.5,31.7,05.5,0000.0,0008.57,0002.93,0001.45
2022-06-21 05:01:00,,0828.9,5.00,0.00,29.8,28.2,00.0,38.4,31.6,05.5,0000.0,0008.76,0002.93,0001.46
2022-06-21 05:02:00,,0828.9,5.00,0.00,29.7,27.5,00.0,38.4,31.4,05.6,0000.0,0008.63,0002.87,0001.44
2022-06-21 05:03:00,,0829.1,5.01,0.00,29.6,27.4,00.0,38.4,31.3,05.7,0000.0,0008.40,0002.92,0001.43
2022-06-21 05:04:00,,0829.3,5.00,0.00,29.6,27.4,00.0,38.4,31.3,05.9,0000.0,0008.31,0002.98,0001.43
2022-06-21 05:05:00,,0829.2,4.99,0.00,29.5,27.5,00.0,38.4,31.3,05.9,0000.0,0008.37,0003.01,0001.44
2022-06-21 05:06:00,,0829.2,5.00,0.00,29.5,27.6,00.0,38.3,31.3,06.0,0000.0,0008.38,0003.01,0001.45
2022-06-21 05:07:00,,0829.3,4.99,0.00,29.5,27.8,00.0,38.3,31.3,06.0,0000.0,0008.36,0002.97,0001.46
2022-06-21 05:08:00,,0829.4,5.00,0.00,29.5,27.9,00.0,38.3,31.3,06.0,0000.0,0008.16,0002.91,0001.46
2022-06-21 05:09:00,,0829.5,5.00,0.00,29.5,28.0,00.0,38.3,31.3,05.9,0000.0,0008.35,0002.94,0001.49
2022-06-21 05:10:00,,0829.5,5.00,0.00,29.5,28.2,00.0,38.3,31.4,05.9,0000.0,0008.69,0003.06,0001.49
2022-06-21 05:11:00,,0829.6,4.99,0.00,29.5,28.3,00.0,38.3,31.4,05.9,0000.0,0008.35,0003.12,0001.50
2022-06-21 05:12:00,,0829.5,4.99,0.00,29.5,28.3,00.0,38.3,31.4,05.9,0000.0,0008.50,0003.15,0001.51
2022-06-21 05:13:00,,0829.6,5.01,0.00,29.6,28.4,00.0,38.4,31.5,05.9,0000.0,0008.75,0003.18,0001.53
2022-06-21 05:14:00,,0829.5,4.99,0.00,29.6,28.5,00.0,38.4,31.5,05.9,0000.0,0008.86,0003.14,0001.53
2022-06-21 05:15:00,,0829.6,5.00,0.00,29.6,28.6,00.0,38.4,31.5,05.9,0000.0,0008.40,0003.09,0001.53
2022-06-21 05:16:00,,0829.6,5.01,0.00,29.6,28.6,00.0,38.4,31.5,05.9,0000.0,0008.23,0003.08,0001.53
2022-06-21 05:17:00,,0829.6,5.00,0.00,29.7,28.7,00.0,38.4,31.6,05.8,0000.0,0008.42,0003.13,0001.53
2022-06-21 05:18:00,,0829.7,4.99,0.00,29.7,28.8,00.0,38.4,31.6,05.8,0000.0,0008.47,0003.17,0001.51
2022-06-21 05:19:00,,0829.8,5.00,0.00,29.7,28.8,00.0,38.4,31.7,05.8,0000.0,0008.40,0003.17,0001.51
2022-06-21 05:20:00,,0829.8,5.00,0.00,29.7,28.9,00.0,38.5,31.7,05.9,0000.0,0008.19,0003.18,0001.51
2022-06-21 05:21:00,,0829.8,4.99,0.00,29.8,28.9,00.0,38.5,31.7,05.9,0000.0,0007.85,0003.09,0001.50
2022-06-21 05:22:00,,0829.9,5.00,0.00,29.8,28.9,00.0,38.5,31.7,05.9,0000.0,0007.96,0003.06,0001.50
2022-06-21 05:23:00,,0829.8,5.00,0.00,29.8,29.0,00.0,38.5,31.8,06.2,0000.0,0007.95,0003.02,0001.50
2022-06-21 05:24:00,,0829.8,5.00,0.00,29.8,29.0,00.0,38.5,31.7,06.4,0000.0,0007.82,0003.03,0001.52
2022-06-21 05:25:00,,0829.8,4.99,0.00,29.9,29.0,00.0,38.6,31.8,06.3,0000.0,0007.70,0003.06,0001.52
2022-06-21 05:26:00,,0829.8,5.00,0.00,29.9,28.4,00.0,38.5,31.6,06.3,0000.0,0008.06,0003.11,0001.54
2022-06-21 05:27:00,,0829.8,5.01,0.00,29.8,27.7,00.0,38.5,31.5,06.5,0000.0,0008.33,0003.12,0001.54
2022-06-21 05:28:00,,0829.8,5.00,0.00,29.7,27.5,00.0,38.4,31.4,06.7,0000.0,0008.27,0003.15,0001.55
2022-06-21 05:29:00,,0829.8,5.01,0.00,29.6,27.5,00.0,38.4,31.3,06.9,0000.0,0008.85,0003.20,0001.58
2022-06-21 05:30:00,,0829.8,4.99,0.00,29.6,27.6,00.0,38.4,31.3,07.4,0000.0,0009.29,0003.22,0001.59
2022-06-21 05:31:00,,0829.8,5.01,0.00,29.6,27.7,00.0,38.4,31.3,07.9,0000.0,0010.05,0003.24,0001.59
2022-06-21 05:32:00,,0829.8,5.01,0.00,29.6,27.8,00.0,38.4,31.3,08.5,0000.0,0010.79,0003.34,0001.60
2022-06-21 05:33:00,,0829.8,5.00,0.00,29.6,28.0,00.0,38.4,31.4,08.7,0000.0,0010.93,0003.42,0001.62
2022-06-21 05:34:00,,0829.9,5.01,0.00,29.6,28.1,00.0,38.4,31.4,08.8,0000.0,0010.99,0003.51,0001.64
2022-06-21 05:35:00,,0829.9,4.99,0.00,29.6,28.2,00.0,38.4,31.4,08.9,0000.0,0010.98,0003.55,0001.64
2022-06-21 05:36:00,,0829.9,5.00,0.00,29.6,28.3,00.0,38.4,31.4,09.1,0000.0,0011.23,0003.65,0001.65
2022-06-21 05:37:00,,0829.9,5.01,0.00,29.6,28.4,00.0,38.4,31.5,09.2,0000.0,0011.46,0003.78,0001.66
2022-06-21 05:38:00,,0829.9,4.99,0.00,29.6,28.4,00.0,38.4,31.5,09.2,0000.0,0011.76,0003.91,0001.68
2022-06-21 05:39:00,,0830.0,5.01,0.00,29.6,28.5,00.0,38.4,31.5,09.1,0000.0,0012.87,0004.01,0001.70
2022-06-21 05:40:00,,0830.0,5.00,0.00,29.6,28.6,00.0,38.4,31.5,09.1,0000.0,0012.83,0004.04,0001.72
2022-06-21 05:41:00,,0830.1,4.99,0.00,29.7,28.6,00.0,38.4,31.6,09.1,0000.0,0012.83,0004.17,0001.73
2022-06-21 05:42:00,,0830.1,5.01,0.00,29.7,28.7,00.0,38.4,31.6,09.1,0000.0,0012.78,0004.25,0001.75
2022-06-21 05:43:00,,0830.1,4.99,0.00,29.7,28.7,00.0,38.5,31.6,09.1,0000.0,0012.24,0004.25,0001.76
2022-06-21 05:44:00,,0830.1,5.01,0.00,29.7,28.8,00.0,38.5,31.6,09.2,0000.0,0012.20,0004.26,0001.75
2022-06-21 05:45:00,,0830.1,5.00,0.00,29.7,28.8,00.0,38.5,31.7,09.2,0000.0,0012.19,0004.23,0001.74
2022-06-21 05:46:00,,0830.1,4.99,0.00,29.8,28.8,00.0,38.5,31.7,09.2,0000.0,0012.33,0004.24,0001.74
2022-06-21 05:47:00,,0830.1,5.00,0.00,29.8,28.9,00.0,38.5,31.7,09.1,0000.0,0012.53,0004.23,0001.75
2022-06-21 05:48:00,,0830.1,5.01,0.00,29.8,28.9,00.0,38.5,31.8,09.1,0000.0,0012.54,0004.22,0001.76
2022-06-21 05:49:00,,0830.1,4.99,0.00,29.8,29.0,00.0,38.6,31.7,09.0,0000.0,0012.21,0004.17,0001.76
2022-06-21 05:50:00,,0830.1,5.01,0.00,29.9,29.0,00.0,38.6,31.8,09.0,0000.0,0011.46,0004.17,0001.75
2022-06-21 05:51:00,,0830.1,5.00,0.00,29.9,29.0,00.0,38.6,31.8,09.0,0000.0,0011.10,0004.12,0001.75
2022-06-21 05:52:00,,0830.1,5.00,0.00,29.9,29.1,00.0,38.6,31.8,09.0,0000.0,0010.89,0004.03,0001.73
2022-06-21 05:53:00,,0830.1,5.00,0.00,29.9,29.1,00.0,38.6,31.9,08.9,0000.0,0011.19,0004.03,0001.71
2022-06-21 05:54:00,,0830.1,5.00,0.00,30.0,29.1,00.0,38.7,31.9,08.9,0000.0,0010.98,0004.00,0001.71
2022-06-21 05:55:00,,0830.2,5.01,0.00,30.0,29.1,00.0,38.7,31.9,08.9,0000.0,0010.88,0003.94,0001.73
2022-06-21 05:56:00,,0830.2,5.00,0.00,30.0,28.8,00.0,38.7,31.9,09.0,0000.0,0011.86,0003.95,0001.73
2022-06-21 05:57:00,,0830.2,5.00,0.00,29.9,27.9,00.0,38.6,31.6,09.1,0000.0,0011.95,0004.01,0001.74
2022-06-21 05:58:00,,0830.3,5.00,0.00,29.9,27.5,00.0,38.6,31.5,09.1,0000.0,0012.46,0004.06,0001.74
2022-06-21 05:59:00,,0830.2,5.00,0.00,29.8,27.5,00.0,38.6,31.4,09.2,0000.0,0012.51,0004.12,0001.75
